GEFSNGP_con_probscp_252.txt.gz
Probability
0 0 1 3 3 1 0 1 2 3 4 6 8 10 10 12 16 18 17 15 15 14 11 10 12 14 18 22 27 32 34 31 28 25 21 16 12 13 12 8 6 5 4 3
0 0 1 2 2 1 1 1 3 3 4 6 9 10 10 12 16 17 15 14 15 15 14 14 15 17 19 23 27 33 35 32 27 23 20 17 16 15 12 9 8 7 5 4
0 0 1 1 1 1 1 2 3 4 5 8 11 12 12 13 15 15 14 15 17 17 17 18 19 20 21 23 26 31 33 30 25 20 18 17 18 16 12 10 9 9 8 7
0 0 0 0 0 0 1 2 4 7 11 14 15 16 16 15 15 15 15 17 18 18 17 18 21 23 24 24 25 27 28 25 21 18 17 18 18 16 12 10 10 9 9 8
0 0 0 0 1 0 0 1 5 12 17 18 20 20 19 17 16 16 16 16 16 16 16 18 20 22 25 26 25 25 23 20 18 17 18 19 18 17 14 13 12 10 9 8
0 0 0 0 0 0 0 1 5 12 16 18 19 19 17 16 16 17 16 15 13 12 14 16 17 20 23 23 22 20 17 15 15 16 17 17 16 15 15 14 13 12 10 9
0 0 0 1 1 0 0 1 5 9 12 13 15 15 14 14 15 17 19 16 12 10 11 12 13 15 17 16 14 12 10 10 12 13 14 14 13 13 14 13 12 11 10 8
0 0 1 2 2 1 0 1 5 9 11 13 15 15 14 13 15 20 20 16 12 10 9 9 10 10 10 10 9 8 6 6 8 10 11 13 13 12 12 11 10 9 8 6
1 1 3 4 4 3 3 3 6 10 13 16 19 19 17 16 17 19 17 14 12 10 8 8 8 7 7 6 7 6 3 2 3 6 9 11 12 12 11 10 9 8 7 6
3 4 5 5 6 6 6 6 8 12 14 16 19 19 17 16 15 13 11 11 12 11 8 6 6 6 6 6 6 4 2 1 1 3 6 9 9 10 10 10 9 7 7 7
5 5 6 5 5 6 9 9 11 12 13 14 15 14 12 11 10 8 7 7 10 11 8 6 5 4 5 6 5 3 2 1 1 2 5 6 7 7 7 7 6 5 6 6
5 5 6 4 3 5 8 9 9 10 11 11 11 8 6 5 5 4 3 4 6 7 7 7 6 4 4 5 4 3 2 2 1 2 4 5 6 5 3 3 2 3 3 3
4 5 6 4 3 3 5 6 7 8 9 9 8 6 4 2 1 2 2 3 3 4 5 6 6 6 5 5 4 3 2 2 2 2 3 4 5 4 2 1 0 1 1 1
4 5 5 3 2 2 2 4 5 6 7 8 7 6 4 2 0 1 2 3 2 3 3 5 6 7 6 5 4 3 2 1 1 2 3 3 4 3 3 2 1 1 0 0
4 3 2 1 0 1 1 2 3 4 5 6 6 6 4 1 0 1 2 3 3 3 3 4 6 7 6 5 4 3 3 1 1 1 2 2 2 1 2 2 2 1 0 0
2 2 1 0 0 0 0 0 1 1 3 4 5 5 3 1 0 0 1 3 4 4 4 5 6 7 6 5 4 4 3 1 1 1 1 1 0 0 1 1 1 1 0 0
1 1 0 0 0 0 0 0 0 0 1 1 2 2 1 0 0 0 1 3 5 5 5 6 7 7 7 7 6 5 5 3 2 2 2 1 1 1 0 0 0 0 0 0
0 0 0 0 0 0 0 0 0 0 0 0 0 0 0 0 0 0 1 3 6 6 5 5 6 7 8 8 7 6 5 4 3 3 3 3 2 2 1 0 0 0 0 0
0 0 0 0 1 1 1 0 0 0 0 0 0 0 0 0 0 0 1 3 5 6 5 4 4 5 7 7 6 5 4 3 3 3 3 2 3 3 2 1 1 0 0 0
0 0 0 1 2 2 2 1 0 0 0 0 0 0 0 0 0 0 1 3 4 5 5 4 3 4 4 5 5 4 3 2 2 2 1 1 1 2 2 2 1 1 1 0
1 0 1 2 3 3 2 1 0 0 0 0 0 0 0 0 0 0 1 3 4 4 4 3 3 3 2 2 3 3 3 2 2 1 0 0 0 1 1 1 1 1 1 1
2 1 1 2 2 1 1 0 0 0 0 0 0 0 0 0 0 0 1 3 4 4 3 3 3 2 1 0 1 2 3 3 2 1 0 0 0 0 0 0 0 1 1 1
3 2 1 1 1 0 0 0 0 0 0 0 0 0 0 0 0 0 1 3 4 3 3 3 2 1 0 0 0 1 2 3 3 2 1 0 0 0 0 0 0 0 0 1
2 1 0 0 0 0 0 0 0 0 0 0 0 0 0 0 0 0 1 2 3 3 3 2 1 0 0 0 0 0 1 1 2 2 1 0 0 0 0 0 0 0 0 0
1 0 0 0 0 0 0 0 0 0 0 0 0 0 0 0 0 0 1 2 3 2 2 1 0 0 0 0 0 0 0 0 1 1 1 0 0 0 0 0 0 0 0 0
0 0 0 0 0 0 0 0 0 0 0 0 0 0 0 0 0 0 1 2 3 2 1 1 0 0 0 0 0 0 0 0 0 0 0 0 0 0 0 0 0 0 0 0
0 0 0 0 0 0 0 0 0 0 0 0 0 0 0 0 0 0 1 2 3 2 2 2 1 0 0 0 0 0 0 0 0 0 0 0 0 0 0 0 0 0 0 0

GEFSNGP_con_probscp_258.txt.gz
Probability
0 0 0 0 0 0 0 0 0 0 2 5 10 17 24 27 27 29 30 27 25 29 34 33 32 33 34 33 31 28 27 29 34 38 39 37 35 32 27 20 15 13 12 10
0 0 0 0 0 0 0 0 0 1 3 6 11 19 27 29 29 30 30 28 27 30 34 35 35 36 37 36 33 30 31 32 34 36 37 35 32 29 24 18 12 10 10 10
0 0 0 0 0 1 1 1 3 5 7 9 14 23 30 33 33 32 31 31 32 33 34 35 37 37 36 34 33 32 32 31 32 34 34 31 28 25 21 17 13 11 11 11
0 0 0 0 0 1 2 3 6 9 11 13 18 25 29 31 34 35 34 34 35 35 34 34 35 35 31 30 33 33 30 28 29 31 30 27 24 23 21 18 16 15 15 15
0 0 0 0 0 1 3 5 8 11 16 20 23 26 28 30 34 38 39 37 35 33 34 34 35 35 31 30 32 32 29 26 26 27 26 23 22 22 21 19 18 18 18 18
0 0 1 1 1 1 4 7 10 14 19 25 27 28 31 33 35 39 41 39 34 31 32 33 35 35 33 32 32 31 29 27 25 23 22 22 22 22 20 18 17 18 19 19
0 0 2 2 2 3 7 13 16 18 21 26 29 32 35 37 38 40 41 37 33 30 30 30 30 30 31 31 29 28 27 25 22 19 18 20 21 20 18 17 17 18 18 18
1 1 3 5 7 11 16 21 21 21 24 29 31 32 35 38 40 42 41 35 31 30 27 25 25 26 28 29 27 25 22 20 17 15 14 15 16 16 16 16 16 16 16 15
5 4 6 9 14 21 27 27 24 23 28 31 32 32 34 38 39 39 35 30 27 27 25 24 24 24 25 26 26 22 19 16 14 12 11 11 12 12 13 15 15 14 14 13
9 9 9 11 16 24 29 27 24 23 25 28 30 31 34 35 34 31 28 24 23 22 22 22 21 21 22 23 24 22 17 13 11 11 10 10 10 11 12 14 14 13 13 13
13 13 11 10 14 20 24 24 22 20 20 23 27 29 31 31 29 26 24 21 18 18 17 17 17 17 17 19 21 20 16 12 10 9 8 8 8 9 10 10 9 9 10 11
17 16 13 11 13 19 22 21 20 20 22 24 26 26 26 26 25 23 19 15 13 13 14 14 14 14 14 16 17 18 15 12 10 8 7 6 6 6 6 5 4 3 4 5
17 17 16 13 14 20 23 20 19 21 25 27 26 25 24 23 22 19 14 10 8 10 13 13 13 13 13 14 15 16 14 11 9 8 7 6 6 5 4 3 2 1 1 1
12 14 15 16 18 22 24 22 21 23 26 26 24 22 21 20 18 15 12 9 7 9 12 13 13 14 14 14 14 14 13 9 7 6 6 6 6 6 5 3 3 2 1 0
10 11 13 16 20 23 25 24 23 24 24 23 19 16 15 14 13 11 10 9 8 9 11 12 13 14 14 14 14 14 11 8 6 5 5 6 7 6 4 3 3 3 2 1
12 12 13 16 18 19 19 18 19 19 18 15 11 8 8 9 9 9 9 9 9 10 10 12 13 14 14 14 15 15 12 8 6 6 6 7 7 6 5 4 4 4 3 2
13 13 14 13 14 14 11 11 12 11 9 7 5 5 6 7 8 8 8 9 10 10 10 11 12 13 14 16 17 17 15 12 8 8 8 9 8 6 5 5 4 4 3 2
12 13 13 11 11 12 10 7 7 5 3 2 3 4 5 6 7 8 8 9 9 10 10 9 9 10 13 15 17 17 16 15 12 11 10 9 7 6 6 5 5 4 3 2
9 11 11 10 10 11 10 7 4 2 1 1 2 3 3 5 6 7 8 7 7 8 9 8 6 8 10 12 15 15 14 13 12 12 11 8 6 6 6 6 6 6 5 4
6 8 9 9 8 9 8 5 3 2 1 1 1 1 1 2 4 6 6 5 6 8 9 7 6 7 8 10 12 14 13 11 10 10 9 6 4 4 6 6 6 6 6 5
6 7 7 7 7 6 5 3 2 2 2 1 0 0 0 0 2 3 4 4 6 7 7 5 4 6 7 7 9 12 12 9 8 8 6 4 3 3 4 5 5 5 5 5
5 6 6 6 6 5 3 1 2 3 3 2 1 0 1 1 1 1 2 4 5 4 4 3 3 3 4 4 5 7 8 7 7 7 6 4 3 3 4 4 4 4 3 3
3 5 5 5 4 4 2 1 2 3 4 4 2 1 1 2 1 1 1 2 2 2 3 3 2 1 1 2 3 3 4 4 5 6 6 5 3 2 3 3 3 2 1 1
2 4 5 4 3 2 1 1 2 4 4 4 2 1 1 2 2 1 1 0 1 2 2 2 1 0 1 1 2 2 2 3 4 5 5 3 2 2 2 3 3 2 1 1
2 4 5 5 4 2 1 1 3 3 3 2 1 1 0 1 1 1 1 0 0 1 1 1 0 0 0 1 1 1 1 1 3 4 3 2 2 3 4 4 4 4 3 2
2 3 5 5 5 4 3 3 3 3 3 1 1 1 1 1 1 1 1 0 0 0 0 1 1 1 1 2 2 2 1 1 2 2 2 1 1 2 3 4 4 4 3 3
3 4 5 5 4 4 4 3 3 3 2 1 1 2 1 2 2 1 0 0 0 0 1 2 2 2 2 3 3 3 3 2 1 1 1 0 0 1 2 3 3 3 3 3

GEFSNGP_con_probscp_264.txt.gz
Probability
0 0 0 0 0 1 1 1 0 2 7 16 24 29 33 35 34 36 40 44 52 60 60 55 49 46 44 43 45 49 52 51 50 49 45 42 42 42 39 35 34 32 29 26
1 0 0 0 0 0 1 1 1 4 11 19 26 31 36 39 39 39 40 45 52 57 56 53 48 44 44 47 48 50 52 50 47 44 41 38 39 39 37 34 33 33 30 26
1 0 0 0 0 0 1 3 5 9 16 23 29 35 39 43 46 45 45 47 51 53 53 52 49 48 50 52 52 52 51 48 41 37 34 33 33 35 34 33 33 32 29 25
1 1 1 1 0 1 3 6 10 15 21 26 32 37 41 46 51 53 51 51 51 51 53 53 52 55 55 52 50 49 48 45 40 34 32 31 30 29 30 32 33 31 26 24
1 1 1 2 2 3 6 9 15 22 26 29 33 37 42 48 55 58 58 55 53 52 53 54 55 56 55 52 48 46 45 43 40 36 33 31 28 26 26 29 30 28 25 24
2 1 2 3 5 7 10 13 20 28 32 34 38 43 47 52 58 62 64 62 58 55 55 56 57 57 55 53 50 46 44 41 38 36 32 28 25 23 24 25 25 23 23 23
3 2 4 8 11 13 18 22 27 32 36 41 49 55 57 60 65 67 69 67 62 58 57 57 56 54 52 49 46 44 42 39 34 31 27 23 20 20 21 20 20 19 20 21
9 11 16 20 23 26 32 35 33 33 38 44 52 59 62 65 67 68 68 66 61 55 52 50 50 48 44 40 37 37 38 35 30 26 24 21 18 17 16 16 16 17 18 19
24 25 29 31 33 37 40 38 33 31 35 41 47 54 60 63 64 63 62 58 52 46 43 42 43 41 37 33 31 34 35 32 27 24 22 20 17 16 14 12 13 15 17 18
37 34 31 29 31 35 37 35 31 30 31 35 42 49 56 59 59 56 53 49 45 41 39 39 38 36 33 31 31 33 32 29 24 21 20 19 17 16 14 10 9 12 16 18
37 34 29 25 24 28 30 30 29 29 30 35 41 47 53 55 56 53 47 43 42 41 40 38 35 32 29 28 30 32 30 26 22 20 20 21 20 16 12 8 7 9 12 13
35 34 33 30 25 25 27 27 28 30 33 39 43 46 50 53 54 51 45 40 40 38 37 35 32 28 26 25 27 29 29 26 22 21 23 25 23 17 10 6 5 5 6 6
33 33 35 34 30 27 28 30 31 35 39 43 46 47 49 48 47 46 41 37 34 33 32 30 27 25 24 23 22 24 26 26 23 22 24 25 24 19 12 6 4 3 2 2
30 30 30 30 28 28 29 32 36 39 42 44 45 47 46 41 36 35 34 31 30 29 28 26 23 22 22 21 21 21 23 24 24 24 23 23 23 19 13 9 6 4 2 0
25 25 24 24 25 26 28 32 35 39 41 41 41 41 39 33 27 25 25 25 26 25 25 24 23 22 21 20 20 21 21 21 22 22 20 19 19 16 13 11 11 8 4 1
20 20 22 24 26 27 27 29 32 35 37 35 35 34 31 26 23 20 19 20 22 21 21 22 23 22 20 19 19 18 18 18 18 18 17 17 16 15 12 11 12 10 6 2
16 17 22 27 28 26 24 23 26 29 30 29 27 25 22 19 17 16 15 16 19 20 19 19 19 18 17 18 18 16 14 14 15 15 15 15 15 15 13 10 9 9 6 4
14 16 20 24 25 23 20 19 21 22 22 22 20 16 12 12 13 13 12 13 15 17 17 15 13 12 13 15 15 12 12 12 14 14 12 12 13 14 13 10 8 8 8 6
14 14 16 18 19 18 17 18 19 19 19 17 15 12 9 9 10 10 10 10 11 13 15 12 8 8 10 10 9 9 10 11 11 10 10 9 11 13 13 11 10 9 9 9
11 12 13 14 15 15 14 15 17 18 16 14 13 12 10 8 7 7 8 9 10 11 12 9 6 6 7 6 4 5 7 8 8 7 8 8 10 11 11 11 10 10 10 10
9 10 11 12 12 11 11 13 14 13 12 11 11 11 10 8 6 7 8 8 9 9 7 6 6 5 4 3 2 3 6 7 7 6 6 7 9 9 10 10 10 10 10 10
7 9 10 10 9 8 9 11 11 9 8 8 9 8 8 7 6 7 8 6 5 4 4 4 4 4 3 2 1 3 5 7 8 8 7 7 9 9 9 10 11 11 11 11
6 7 8 8 7 7 8 9 8 6 6 6 7 7 6 6 5 4 3 2 1 0 1 2 3 2 2 3 4 4 5 7 9 10 8 8 10 10 9 10 11 11 11 10
3 4 5 6 6 6 6 6 5 4 5 6 6 5 5 5 3 1 0 0 0 0 1 1 1 1 2 4 5 5 5 6 8 10 9 8 9 9 8 8 8 8 8 8
1 1 2 4 5 5 5 4 3 3 4 5 4 2 2 3 3 1 1 1 0 0 1 0 0 0 2 4 4 4 5 7 8 8 9 8 7 7 6 6 6 6 7 8
1 0 1 2 4 4 4 4 3 3 3 4 3 1 1 3 3 2 1 1 0 0 0 0 0 0 1 2 2 3 5 7 8 8 7 7 6 5 6 6 6 7 8 9
0 0 0 1 3 4 4 4 3 3 3 3 3 2 2 3 3 3 2 1 0 0 0 0 0 0 1 2 2 2 3 7 8 7 7 8 6 6 6 6 7 8 9 8

GEFSNGP_con_probscp_270.txt.gz
Probability
0 1 2 2 1 1 1 1 3 6 9 12 15 19 21 22 24 28 33 39 43 40 35 34 33 32 31 31 29 28 29 27 25 23 24 24 24 24 23 22 19 15 13 12
1 0 1 1 2 2 3 4 5 8 11 13 16 21 23 24 26 30 34 39 43 41 37 34 33 32 32 30 28 27 26 25 23 21 22 22 22 22 21 20 16 12 10 11
1 0 0 1 1 3 6 7 8 10 12 13 18 24 27 28 30 33 36 39 42 41 39 36 35 34 33 31 28 27 25 24 22 20 20 20 20 19 18 16 10 7 7 8
1 0 0 0 1 4 8 9 10 12 14 16 21 28 32 31 33 35 37 40 41 41 40 37 36 37 35 32 28 27 26 24 22 20 19 19 18 18 16 12 6 4 5 5
0 0 0 0 2 5 9 10 11 14 18 21 25 29 30 30 31 34 37 41 43 43 40 37 36 35 34 32 30 29 27 24 21 20 20 19 17 16 13 9 5 4 3 4
0 0 1 3 6 8 10 11 12 15 21 24 25 25 25 27 30 34 37 40 43 42 39 37 34 31 29 31 32 32 30 27 23 21 19 18 16 14 11 7 5 4 4 4
0 1 2 6 10 11 10 11 13 16 21 22 22 22 24 28 33 35 38 40 40 37 35 33 31 28 27 28 30 31 30 26 23 20 18 16 14 13 10 7 5 4 4 5
2 2 4 8 11 11 11 13 15 17 21 23 25 26 28 31 34 36 37 38 36 34 32 29 26 26 26 27 28 29 26 22 19 18 16 14 12 11 9 7 5 4 3 4
8 9 11 13 14 13 13 16 18 20 24 28 31 30 29 30 32 34 34 33 31 30 29 24 21 21 22 24 25 25 21 18 17 16 14 12 10 10 8 6 4 3 3 2
18 18 19 20 18 17 18 20 22 25 29 32 33 31 29 30 31 31 30 28 27 26 24 19 17 17 18 20 20 17 14 13 14 14 13 12 11 10 9 6 4 3 3 3
19 19 20 19 19 19 21 23 26 29 32 33 33 30 30 32 32 29 27 25 25 24 19 15 15 16 15 15 14 11 8 9 11 12 13 13 12 10 8 6 4 3 2 2
14 14 14 14 16 19 21 24 27 31 31 31 31 31 31 33 32 27 23 22 23 21 16 13 14 15 13 12 10 8 6 7 8 10 12 13 12 9 6 4 2 1 1 1
10 10 10 11 14 17 19 23 27 29 29 28 28 29 29 30 28 23 20 19 18 17 14 12 13 13 12 10 7 5 5 6 6 8 11 12 11 9 6 2 0 0 0 0
8 8 9 10 13 15 17 21 24 26 24 23 23 24 25 25 22 19 17 16 15 13 11 10 10 10 9 7 4 3 3 5 6 7 9 11 11 11 8 5 2 1 0 0
8 8 8 10 12 13 14 17 20 21 20 19 18 19 20 20 17 15 14 14 13 11 9 9 8 7 6 4 3 2 3 6 7 7 7 9 11 12 10 7 4 3 1 0
8 7 8 10 11 12 12 14 17 18 18 16 13 13 15 15 14 13 12 11 10 9 8 8 6 4 3 2 2 2 3 5 6 6 6 7 9 10 9 7 5 4 2 1
7 7 8 10 11 10 11 13 15 15 14 12 10 10 10 10 9 10 9 7 6 6 6 6 4 2 1 1 1 1 1 2 3 4 4 5 6 7 6 5 4 3 2 1
4 5 7 9 9 8 9 11 13 13 12 10 8 7 5 4 4 4 4 4 4 4 4 4 3 1 0 0 0 0 0 0 1 3 3 4 5 5 4 2 1 1 1 0
3 4 6 7 7 7 8 10 11 11 10 8 6 4 2 1 1 1 1 2 2 2 3 3 3 2 1 0 0 0 0 0 1 2 3 3 4 4 3 2 1 1 0 0
2 3 4 6 6 7 8 9 9 8 7 5 4 2 1 0 0 0 0 1 1 1 1 2 3 3 2 1 0 1 2 1 0 1 2 3 3 3 3 3 2 2 1 0
1 1 2 3 4 6 7 7 8 6 5 3 2 1 0 0 0 0 0 0 0 0 0 1 2 3 3 2 1 2 3 2 1 1 2 2 3 3 3 3 3 3 2 1
0 0 1 1 2 4 5 6 7 6 5 3 1 0 0 0 0 0 0 0 0 0 0 0 1 1 2 1 2 2 3 3 3 2 2 1 1 2 3 3 3 3 2 1
1 1 1 1 0 2 3 5 6 6 5 3 1 0 0 0 0 0 0 0 0 0 0 0 0 0 0 0 1 1 2 2 2 2 2 1 0 1 3 3 3 3 1 0
2 2 2 1 0 1 3 4 4 4 3 2 1 0 0 0 0 0 0 0 0 0 0 0 0 0 0 0 0 0 1 1 1 1 1 0 0 1 2 3 3 3 1 0
1 2 2 1 1 3 4 4 3 2 1 0 0 0 0 0 0 0 0 0 0 0 0 0 0 0 0 0 0 0 0 0 0 0 0 0 0 1 2 3 3 3 2 1
0 1 1 1 1 2 3 3 2 1 0 0 0 0 0 0 0 0 0 0 0 0 0 0 0 0 0 0 0 0 0 0 0 0 0 0 0 0 1 2 3 3 2 1
0 0 0 0 1 1 1 1 1 0 0 0 0 0 0 0 0 0 0 0 0 0 0 0 0 0 0 0 0 0 0 0 0 0 0 0 0 0 0 1 3 3 2 1

GEFSNGP_con_probscp_276.txt.gz
Probability
0 1 2 3 1 0 0 0 1 2 4 4 3 5 8 14 19 19 20 22 23 22 20 20 21 22 21 19 16 15 15 15 15 15 16 16 17 17 15 14 12 9 8 8
0 1 2 3 2 1 1 2 2 4 5 4 4 6 10 15 19 20 20 23 24 24 24 22 22 22 20 17 14 13 13 14 15 16 16 17 17 16 14 12 10 8 6 5
0 0 1 2 2 2 4 4 5 5 4 4 5 7 9 13 17 18 20 22 23 25 27 25 22 20 17 14 14 14 14 14 15 17 18 16 15 14 12 11 8 6 4 2
0 0 0 1 1 2 4 4 4 3 3 3 6 8 9 12 15 16 18 20 21 24 25 23 19 16 11 10 13 16 16 16 17 19 18 16 13 11 11 9 7 4 3 1
0 0 0 1 1 2 2 2 1 1 2 4 7 9 10 13 16 17 18 20 21 22 20 17 14 11 8 8 12 15 15 16 18 18 16 14 11 9 9 7 5 3 2 1
0 1 1 2 3 2 1 0 0 1 3 6 9 10 11 15 19 19 19 20 22 20 15 12 10 8 6 7 11 13 13 14 16 16 14 11 9 8 7 6 4 3 1 0
1 2 3 4 4 3 1 1 1 2 4 7 10 12 13 15 17 17 16 18 20 17 13 11 10 8 6 7 10 11 12 13 14 13 12 10 8 7 7 6 4 2 1 0
1 2 4 5 5 4 2 3 3 4 5 8 12 14 14 13 13 13 14 16 17 17 14 12 11 9 8 8 9 9 10 11 12 12 11 9 7 6 6 6 4 3 1 0
4 5 6 6 6 5 4 4 5 6 8 11 14 14 13 11 10 10 12 16 17 17 15 13 12 10 10 9 9 9 9 10 10 11 10 9 8 7 7 6 5 4 3 2
9 10 9 8 7 7 5 5 6 8 10 12 13 12 11 11 11 11 14 17 18 19 17 14 12 10 10 9 8 8 8 8 9 9 10 9 9 8 8 7 6 6 5 5
9 9 9 8 7 7 7 8 8 9 10 10 11 10 11 12 13 14 17 19 21 21 19 16 12 8 7 7 8 9 8 7 6 6 8 9 9 9 8 6 5 5 5 5
4 4 5 5 5 7 9 9 9 10 10 10 10 11 13 15 16 18 19 21 21 20 20 18 12 7 5 6 7 7 6 4 3 3 4 6 7 8 7 4 2 2 2 2
1 2 3 3 4 7 9 9 10 11 12 13 14 15 17 18 18 19 19 19 19 18 18 16 12 8 6 5 5 4 2 1 1 1 1 2 4 6 6 4 1 0 0 0
1 2 3 3 5 8 10 10 11 12 13 15 16 17 17 19 20 18 16 15 15 15 14 12 10 8 6 4 3 3 1 1 0 0 0 1 2 4 5 5 3 1 0 0
0 1 2 4 6 8 9 9 8 8 10 13 14 14 15 17 18 15 13 12 12 12 10 8 7 7 5 3 3 3 3 2 1 1 1 2 3 4 4 5 4 2 1 0
0 0 1 3 6 7 8 7 5 4 7 9 10 11 11 12 13 12 11 11 11 10 9 7 6 6 5 4 3 3 3 3 3 2 2 3 3 3 3 4 3 3 2 1
0 0 1 4 6 7 8 7 5 3 5 7 8 8 8 8 8 9 9 9 9 9 8 7 5 4 4 4 3 3 3 3 3 2 2 2 2 2 3 3 3 3 2 1
1 1 2 4 6 7 9 8 6 4 4 5 6 6 6 6 7 7 8 8 8 7 6 4 3 3 3 3 3 3 3 2 1 1 1 1 0 1 2 3 3 3 2 1
2 2 3 5 6 7 7 7 5 4 3 4 5 4 4 5 6 6 6 6 5 4 3 1 1 2 2 2 2 2 1 1 0 0 0 0 0 0 1 1 2 1 1 1
3 3 3 4 4 4 4 4 4 4 3 3 4 3 3 4 4 4 3 3 2 1 0 0 0 1 1 1 1 1 0 0 0 0 0 0 0 0 0 0 0 0 0 1
3 3 3 3 3 2 1 1 2 2 1 2 3 3 3 3 2 2 1 1 0 0 0 0 0 0 0 0 0 0 0 0 0 0 0 0 0 0 0 0 0 0 0 0
2 3 3 3 3 1 0 0 1 0 0 1 2 3 3 1 1 1 0 0 0 0 0 0 0 0 0 0 0 0 0 0 0 0 0 0 0 0 0 0 0 0 0 0
1 2 3 3 3 2 1 0 1 0 0 1 2 3 2 1 0 0 0 0 0 0 0 0 0 0 0 0 0 0 0 0 0 0 0 0 0 0 0 0 0 0 0 0
1 2 2 2 2 2 1 0 0 0 1 2 3 2 1 0 0 0 0 0 0 0 0 0 0 0 0 0 0 0 0 0 0 0 0 0 0 0 0 0 0 0 0 0
0 1 1 1 1 1 0 0 0 0 1 2 2 1 0 0 0 0 0 0 0 0 0 0 0 0 0 0 0 0 0 0 0 0 0 0 0 0 0 0 0 0 0 0
0 0 0 0 0 0 0 0 0 0 0 1 1 0 0 0 0 0 0 0 0 0 0 0 0 0 0 0 0 0 0 0 0 0 0 0 0 0 0 0 0 0 0 0
0 0 0 0 0 0 0 1 1 1 0 0 0 0 0 0 0 0 0 0 0 0 0 0 0 0 0 0 0 0 0 0 0 0 0 0 0 0 0 0 0 0 0 0